Welcome to the New NWS' Forecast!
Most changes are behind the scenes, but click here for differences you might notice.

Regional Weather Roundup (RWR)

Issued by Gray - Portland, ME (GYX)

                            
000
ASUS41 KGYX 161305
RWRGYX
WEATHER ROUNDUP FOR MAINE AND NEW HAMPSHIRE
NATIONAL WEATHER SERVICE GRAY ME
800 AM EST FRI NOV 16 2018

MEZ002-005-006-010-012-015-018-020-021-024-026-027-029-161400-
MAINE
  
CITY           SKY/WX    TMP DP  RH WIND       PRES   REMARKS
PORTLAND       SNOW      28  27  96 N13       29.70F VSB 1/4 WCI  17  
SANFORD        LGT SNOW  27  26  96 N17       29.65F VSB 3/4 WCI  14  
BAR HARBOR     SNOW      30  28  92 NE17      29.79F VSB 1/2 WCI  18  
WISCASSET      SNOW      28  27  96 NE8       29.73F VSB 1/4          
ROCKLAND       MIX PCPN  33  32  96 NE22G32   29.73F FOG              
FRYEBURG       SNOW      24  22  91 N13       29.75F VSB 1/2 WCI  12  
LEWISTONAUBURN LGT SNOW  25  23  93 N16       29.73F FOG     WCI  12  
AUGUSTA        LGT SNOW  23  21  92 N15G24    29.76F VSB 1   WCI  10  
WATERVILLE     LGT SNOW  24  21  88 MISG      29.76F FOG              
BANGOR         LGT SNOW  25  22  88 NE16      29.85F FOG     WCI  12  
GREENVILLE       N/A     19  14  81 E12G23    29.81F WCI   7          
MILLINOCKET    SNOW      20  16  84 N6        29.96F VSB 1/2          
HOULTON        SNOW      19  16  88 NE7       29.99F VSB 1/4          
PRESQUE ISLE   LGT SNOW  18  12  77 CALM      30.02F                  
FRENCHVILLE    CLOUDY    16   6  65 E6        29.99F                  
CARIBOU        CLOUDY    18   9  68 E5        30.01F                  
$$

NHZ002-005-008-009-011-012-014-161400-
NEW HAMPSHIRE
  
CITY           SKY/WX    TMP DP  RH WIND       PRES   REMARKS
ROCHESTER      SNOW      28  27  96 N13G18    29.63F VSB 1/2 WCI  17  
NASHUA         MIX PCPN  32  32 100 NW12      29.62S FOG              
MANCHESTER     FRZ RAIN  31  30  96 N17       29.61F FOG     WCI  19  
CONCORD        SNOW      27  25  92 N9        29.66F VSB 1/2          
LACONIA        LGT SNOW  26  24  92 NE12      29.69F FOG     WCI  16  
PLYMOUTH       LGT SNOW  31  28  87 SE3       29.70F                  
BERLIN         LGT SNOW  24  21  88 N5        29.72F VSB 3/4          
WHITEFIELD     LGT SNOW  27  22  81 E17G28    29.67F WCI  14          
JAFFREY        LGT SNOW  27  27 100 VRB6      29.56F FOG              
KEENE          LGT SNOW  28  27  93 N5        29.60F FOG              
LEBANON        LGT SNOW  26  22  84 N7        29.69F VSB 3/4          
MT WASHINGTON  SNOW      12  12 100 E51G61      N/A  VSB 1/16WCI -14  
$$

VTZ005-007-008-161400-
VERMONT
  
CITY           SKY/WX    TMP DP  RH WIND       PRES   REMARKS
ST JOHNSBURY     N/A     25  22  88 MISG      29.71F                  
MONTPELIER     SNOW      21  21 100 NW6       29.75S VSB 1/2          
BURLINGTON     SNOW      25  22  88 CALM      29.78F VSB 1/2          
$$

MAZ007-012-024-CTZ003-RIZ002-NYZ038-NYZ072-161400-
SOUTHERN NEW ENGLAND AND NY
  
CITY           SKY/WX    TMP DP  RH WIND       PRES   REMARKS
BOSTON         LGT RAIN  45  42  89 E30       29.47F FOG              
WORCESTER      LGT SNOW  33  32  96 N14G26    29.52S FOG              
NANTUCKET      CLOUDY    52  50  93 SE21G35   29.36F FOG              
PROVIDENCE     LGT RAIN  40  40 100 NW10      29.42F FOG              
HARTFORD       LGT RAIN  33  32  96 N14       29.51F FOG              
ALBANY         SNOW      30  26  85 NW10      29.75R VSB 1/2          
NEW YORK CITY  LGTSLEET  37  34  89 NW30G38   29.55R FOG              
$$

ANZ081-ANZ082-ANZ150-NHZ014-MEZ023>029-161400-
COASTAL MARINE OBSERVATIONS
  
STATION/POSITION TIME  TEMP    WIND        PRES    WAVE
                       AIR SEA DIR/SP/G            HT/PER
                 (UTC) (F)     (DEG/KT/KT) (MB)    (FT/S)
MOUNT DESERT ROC 1200   35      60/ 37/ 40 1008.8F
MATINICUS ROCK   1200   37      80/ 43/ 47 1006.1F
ISLE OF SHOALS   1200   41      70/ 37/ 40 1001.9F
CASHES LEDGE BUO 1150   41 50                N/A    12/ 8
$$

.............KEY..............
   WCI - WIND CHILL
   TC  - TEMPERATURE IN CELSIUS
   VSB - VISIBILITY IN MILES
   HX  - HEAT INDEX
   FAIR- INDICATES FEW OR NO CLOUDS BELOW 12,000 FT, WITH NO 
         SIGNIFICANT WEATHER AND/OR OBSTRUCTIONS TO VISIBILITY.